Date String (YYYY-MM-DD hh:mm:ss) UTC,Instrument flags,Ambient pressure (hPa),Sample flow (lpm),Bypass flow (lpm),Sample temperature (°C),Ambient temperature (°C),ASC tube jacket temperature (°C),LED temperature (°C),Box temperature (°C),Sample RH (%),Span deviation,Mass concentration (μg/m³),Mass concentration (μg/m³),Mass concentration (μg/m³)
DateTimeUTC,F1_M11,P_M11,Q1_M11,Q2_M11,T1_M11,T2_M11,T3_M11,T4_M11,T5_M11,U1_M11,ZSPAN_M11,X2_M11,X0_M11,X1_M11
2023-04-07 19:00:00,,0832.0,5.00,0.00,23.9,22.7,00.0,32.1,25.6,09.8,0000.0,0006.67,0014.06,0005.69
2023-04-07 19:01:00,,0831.9,5.01,0.00,23.9,22.7,00.0,32.2,25.6,09.9,0000.0,0006.75,0014.87,0005.77
2023-04-07 19:02:00,,0831.7,5.01,0.00,24.0,22.8,00.0,32.2,25.6,09.6,0000.0,0006.79,0014.81,0005.83
2023-04-07 19:03:00,,0831.7,5.00,0.00,24.0,22.8,00.0,32.2,25.6,09.6,0000.0,0006.82,0014.63,0005.88
2023-04-07 19:04:00,,0831.7,4.99,0.00,24.0,22.8,00.0,32.2,25.6,09.5,0003.0,0006.89,0014.89,0005.91
2023-04-07 19:05:00,,0831.7,5.00,0.00,24.0,22.7,00.0,32.2,25.6,09.5,0000.0,0006.94,0015.54,0005.92
2023-04-07 19:06:00,,0831.7,4.99,0.00,24.0,22.7,00.0,32.2,25.5,09.5,0000.0,0007.01,0016.37,0005.96
2023-04-07 19:07:00,,0831.7,4.99,0.00,24.0,22.8,00.0,32.2,25.5,09.5,0000.0,0007.10,0016.94,0006.00
2023-04-07 19:08:00,,0831.6,5.00,0.00,24.0,22.8,00.0,32.2,25.6,09.8,0000.0,0007.13,0016.64,0006.04
2023-04-07 19:09:00,,0831.6,5.01,0.00,24.0,22.8,00.0,32.2,25.6,10.0,0002.8,0007.18,0016.61,0006.07
2023-04-07 19:10:00,,0831.6,5.00,0.00,24.0,22.8,00.0,32.3,25.6,09.8,0000.5,0007.21,0016.22,0006.08
2023-04-07 19:11:00,,0831.6,5.00,0.00,24.0,22.8,00.0,32.3,25.6,09.7,0000.0,0007.17,0016.06,0006.07
2023-04-07 19:12:00,,0831.6,4.99,0.00,24.1,22.8,00.0,32.3,25.6,09.5,0000.0,0007.18,0015.36,0006.06
2023-04-07 19:13:00,,0831.6,4.99,0.00,24.1,22.8,00.0,32.3,25.6,09.9,0000.0,0007.18,0015.57,0006.06
2023-04-07 19:14:00,,0831.6,4.99,0.00,24.1,22.8,00.0,32.3,25.6,09.5,0000.0,0007.23,0015.88,0006.07
2023-04-07 19:15:00,,0831.6,5.02,0.00,24.1,22.8,00.0,32.3,25.6,09.3,0000.0,0007.28,0015.83,0006.10
2023-04-07 19:16:00,,0831.6,4.99,0.00,24.1,22.8,00.0,32.3,25.6,09.3,0001.0,0007.26,0015.35,0006.10
2023-04-07 19:17:00,,0831.6,4.98,0.00,24.1,22.8,00.0,32.3,25.6,09.2,0000.0,0007.23,0015.07,0006.09
2023-04-07 19:18:00,,0831.6,5.00,0.00,24.1,22.8,00.0,32.3,25.6,09.1,0000.0,0007.21,0014.55,0006.08
2023-04-07 19:19:00,,0831.6,5.00,0.00,24.1,22.8,00.0,32.3,25.6,09.4,0000.0,0007.18,0014.52,0006.05
2023-04-07 19:20:00,,0831.6,5.01,0.00,24.1,22.9,00.0,32.4,25.7,09.6,0000.0,0007.14,0014.41,0006.04
2023-04-07 19:21:00,,0831.5,5.01,0.00,24.1,22.9,00.0,32.4,25.7,09.5,0000.0,0007.14,0014.29,0006.04
2023-04-07 19:22:00,,0831.5,5.00,0.00,24.1,22.9,00.0,32.4,25.7,09.3,0000.0,0007.18,0013.93,0006.06
2023-04-07 19:23:00,,0831.5,4.99,0.00,24.1,22.9,00.0,32.4,25.7,09.0,0000.0,0007.17,0013.58,0006.05
2023-04-07 19:24:00,,0831.5,5.00,0.00,24.1,22.8,00.0,32.4,25.7,08.7,0000.0,0007.08,0013.48,0006.00
2023-04-07 19:25:00,,0831.5,5.00,0.00,24.2,22.8,00.0,32.4,25.7,08.8,0000.0,0006.95,0013.16,0005.96
2023-04-07 19:26:00,,0831.5,5.00,0.00,24.2,22.8,00.0,32.4,25.7,09.0,0000.0,0006.87,0013.69,0005.92
2023-04-07 19:27:00,,0831.4,5.00,0.00,24.2,22.9,00.0,32.4,25.7,09.0,0000.0,0006.82,0014.01,0005.91
2023-04-07 19:28:00,,0831.5,5.00,0.00,24.2,22.9,00.0,32.4,25.7,09.2,0000.0,0006.77,0014.36,0005.88
2023-04-07 19:29:00,,0831.4,5.00,0.00,24.2,22.9,00.0,32.4,25.7,09.2,0000.0,0006.68,0013.87,0005.85
2023-04-07 19:30:00,,0831.4,5.01,0.00,24.2,22.9,00.0,32.4,25.7,09.0,0000.0,0006.67,0014.12,0005.81
2023-04-07 19:31:00,,0831.5,5.00,0.00,24.2,22.9,00.0,32.5,25.7,08.7,0000.0,0006.61,0014.06,0005.76
2023-04-07 19:32:00,,0831.4,5.01,0.00,24.2,22.9,00.0,32.5,25.8,08.6,0000.0,0006.50,0014.30,0005.69
2023-04-07 19:33:00,,0831.4,5.01,0.00,24.2,22.9,00.0,32.5,25.8,08.6,0000.0,0006.44,0014.41,0005.63
2023-04-07 19:34:00,,0831.4,4.99,0.00,24.2,22.9,00.0,32.5,25.8,08.9,0000.0,0006.39,0014.80,0005.59
2023-04-07 19:35:00,,0831.4,4.99,0.00,24.2,23.0,00.0,32.5,25.9,08.9,0000.0,0006.42,0015.71,0005.60
2023-04-07 19:36:00,,0831.4,5.00,0.00,24.3,23.0,00.0,32.5,25.9,09.2,0000.0,0006.48,0017.29,0005.60
2023-04-07 19:37:00,,0831.4,5.01,0.00,24.3,23.0,00.0,32.5,25.9,09.0,0000.0,0006.50,0016.95,0005.59
2023-04-07 19:38:00,,0831.4,5.01,0.00,24.3,23.0,00.0,32.5,25.9,08.8,0000.0,0006.50,0016.41,0005.58
2023-04-07 19:39:00,,0831.3,5.00,0.00,24.3,23.0,00.0,32.5,25.9,08.8,0000.0,0006.51,0015.59,0005.60
2023-04-07 19:40:00,,0831.3,5.00,0.00,24.3,23.0,00.0,32.5,25.9,08.8,0000.0,0006.54,0015.61,0005.61
2023-04-07 19:41:00,,0831.3,5.00,0.00,24.3,23.0,00.0,32.5,25.9,08.6,0000.0,0006.58,0015.44,0005.64
2023-04-07 19:42:00,,0831.3,5.00,0.00,24.3,23.0,00.0,32.6,25.9,08.8,0000.0,0006.63,0015.64,0005.67
2023-04-07 19:43:00,,0831.3,5.00,0.00,24.3,23.1,00.0,32.6,25.9,08.6,0000.0,0006.70,0015.81,0005.70
2023-04-07 19:44:00,,0831.3,5.01,0.00,24.4,23.1,00.0,32.6,26.0,09.1,0000.0,0006.76,0015.69,0005.73
2023-04-07 19:45:00,,0831.3,5.00,0.00,24.4,23.1,00.0,32.6,26.0,08.3,0000.0,0006.78,0015.89,0005.73
2023-04-07 19:46:00,,0831.3,4.99,0.00,24.4,23.1,00.0,32.6,26.0,08.2,0000.0,0006.71,0014.97,0005.68
2023-04-07 19:47:00,,0831.3,5.01,0.00,24.4,23.1,00.0,32.6,26.0,07.9,0000.0,0006.64,0013.62,0005.63
2023-04-07 19:48:00,,0831.2,5.00,0.00,24.4,23.1,00.0,32.6,26.0,07.8,0000.0,0006.55,0014.67,0005.56
2023-04-07 19:49:00,,0831.2,5.00,0.00,24.4,23.2,00.0,32.7,26.0,08.1,0000.0,0006.46,0015.55,0005.48
2023-04-07 19:50:00,,0831.2,5.00,0.00,24.4,23.2,00.0,32.7,26.0,08.3,0000.0,0006.43,0015.79,0005.41
2023-04-07 19:51:00,,0831.2,5.00,0.00,24.4,23.2,00.0,32.7,26.0,08.4,0000.0,0006.38,0015.84,0005.36
2023-04-07 19:52:00,,0831.2,5.00,0.00,24.4,23.2,00.0,32.7,26.0,07.9,0000.0,0006.27,0015.60,0005.28
2023-04-07 19:53:00,,0831.1,5.01,0.00,24.5,23.2,00.0,32.7,26.1,07.8,0000.0,0006.19,0015.31,0005.23
2023-04-07 19:54:00,,0831.1,5.00,0.00,24.5,23.2,00.0,32.7,26.1,08.1,0000.0,0006.11,0015.76,0005.17
2023-04-07 19:55:00,,0831.1,5.00,0.00,24.5,23.2,00.0,32.7,26.1,08.3,0000.0,0006.07,0016.31,0005.16
2023-04-07 19:56:00,,0831.1,5.00,0.00,24.5,23.2,00.0,32.7,26.1,08.9,0000.0,0006.08,0016.19,0005.21
2023-04-07 19:57:00,,0831.1,4.99,0.00,24.5,23.2,00.0,32.7,26.1,08.8,0000.0,0006.20,0016.49,0005.32
2023-04-07 19:58:00,,0831.1,5.00,0.00,24.5,23.3,00.0,32.7,26.1,08.8,0000.0,0006.36,0016.97,0005.44
2023-04-07 19:59:00,,0831.1,5.00,0.00,24.5,23.3,00.0,32.8,26.1,09.2,0000.0,0006.50,0015.83,0005.57
